Regional Weather Roundup
Issued by NWS

Home | Current Version | Previous Version | Graphics & Text | Print | Product List | Glossary On
Versions: 1 2 3 4 5 6 7 8 9 10 11 12 13 14 15 16 17 18 19 20 21 22 23 24 25 26 27 28 29 30 31 32 33 34 35 36 37 38 39 40 41 42 43 44 45 46 47 48 49 50
000
ASUS44 KMEG 301310
RWRTN
TENNESSEE HOURLY STATE WEATHER ROUNDUP
NATIONAL WEATHER SERVICE MEMPHIS TN
800 AM CDT THU JUL 30 2015

TNZ002-004-019-021-049-052-054-088>092-301400-
WEST TENNESSEE

CITY           SKY/WX    TMP DP  RH WIND       PRES   REMARKS
MEMPHIS INTL   MOSUNNY   82  70  66 NE13      30.08R
NWS MEMPHIS      N/A     80 N/A N/A MISG        N/A
JACKSON        PTSUNNY   79  66  64 NE10      30.09R
DYERSBURG        N/A    N/A N/A N/A MISG        N/A
PARIS          SUNNY     73  63  68 NE9       30.12R
$$

TNZ008-025-027-028-033-062-065-066-301400-
NORTH MIDDLE TENNESSEE

CITY           SKY/WX    TMP DP  RH WIND       PRES   REMARKS
NASHVILLE      PTSUNNY   78  66  66 NE12      30.09R
CLARKSVILLE    SUNNY     74  64  71 N6        30.11R
SMYRNA         PTSUNNY   79  68  69 N13       30.09R
CROSSVILLE     CLOUDY    74  70  87 N6        30.12R FOG
$$

TNZ061-075-076-078-094-096-097-301400-
SOUTH MIDDLE TENNESSEE

CITY           SKY/WX    TMP DP  RH WIND       PRES   REMARKS
FAYETTEVILLE   PTSUNNY   75  73  94 N8        30.07S
TULLAHOMA      CLOUDY    75  70  83 N9        30.10R
WINCHESTER     CLOUDY    75  72  88 CALM      30.08R
MCMINNVILLE    CLOUDY    75  75 100 NE8       30.09R
COLUMBIA       PTSUNNY   79  73  83 N6        30.07R
SHELBYVILLE    CLOUDY    77  73  88 N8        30.09R
$$

TNZ017-018-042-046-047-301400-
NORTHEAST TENNESSEE

CITY           SKY/WX    TMP DP  RH WIND       PRES   REMARKS
TRI CITIES     CLOUDY    76  71  85 CALM      30.06R
ELIZABETHTON   PTSUNNY   73  70  88 CALM      30.06S
$$

TNZ012-013-036-069-073-074-301400-
CENTRAL EAST TENNESSEE

CITY           SKY/WX    TMP DP  RH WIND       PRES   REMARKS
KNOXVILLE      MOSUNNY   79  70  74 N5        30.05R
OAK RIDGE      PTSUNNY   79  71  76 CALM      30.07R
GATLINBURG     CLOUDY    79  72  78 NW3       30.05R
MORRISTOWN       N/A     79  70  73 CALM      30.07R
$$

TNZ083-085-099-301400-
SOUTHEAST TENNESSEE

CITY           SKY/WX    TMP DP  RH WIND       PRES   REMARKS
CHATTANOOGA    MOSUNNY   81  69  67 N14       30.04R
$$

SKY/WX REPORTED AS FAIR MEANS FEW OR NO CLOUDS BELOW
12 THOUSAND FEET.



USA.gov is the U.S. government's official web portal to all federal, state and local government web resources and services.